Time,TemperatureF,DewpointF,PressureIn,WindDirection,WindDirectionDegrees,WindSpeedMPH,WindSpeedGustMPH,Humidity,HourlyPrecipIn,Conditions,Clouds,dailyrainin,SoftwareType,DateUTC
2013-06-10 00:00:00,80.1,75.2,30.09,SSE,154,4.0,7.0,85,0.00,,,0.00,meteohub,2013-06-10 04:00:00,
2013-06-10 00:01:00,79.9,75.0,30.09,SSE,150,6.0,7.0,85,0.00,,,0.00,meteohub,2013-06-10 04:01:00,
2013-06-10 00:02:00,79.9,75.0,30.09,SE,128,2.0,7.0,85,0.00,,,0.00,meteohub,2013-06-10 04:02:00,
2013-06-10 00:07:00,79.9,75.0,30.09,SSE,158,1.0,8.0,85,0.00,,,0.00,meteohub,2013-06-10 04:07:00,
2013-06-10 00:12:00,79.9,75.0,30.09,ESE,111,0.0,8.0,85,0.00,,,0.00,meteohub,2013-06-10 04:12:00,
2013-06-10 00:17:00,79.9,75.4,30.09,East,89,1.0,8.0,86,0.00,,,0.00,meteohub,2013-06-10 04:17:00,
2013-06-10 00:22:00,79.9,75.4,30.09,SSE,164,3.0,8.0,86,0.00,,,0.00,meteohub,2013-06-10 04:22:00,
2013-06-10 00:27:00,79.9,75.4,30.09,SE,136,4.0,8.0,86,0.00,,,0.00,meteohub,2013-06-10 04:27:00,
2013-06-10 00:32:00,79.9,75.4,30.09,SSE,155,2.0,8.0,86,0.00,,,0.00,meteohub,2013-06-10 04:32:00,
2013-06-10 00:37:00,79.9,75.4,30.09,ESE,123,0.0,7.0,86,0.00,,,0.00,meteohub,2013-06-10 04:37:00,
2013-06-10 00:42:00,79.7,74.8,30.09,ENE,69,3.0,6.0,85,0.00,,,0.00,meteohub,2013-06-10 04:42:00,
2013-06-10 00:47:00,79.7,75.2,30.09,ENE,74,0.0,7.0,86,0.00,,,0.00,meteohub,2013-06-10 04:47:00,
2013-06-10 00:52:00,79.7,75.2,30.09,East,81,0.0,7.0,86,0.00,,,0.00,meteohub,2013-06-10 04:52:00,
2013-06-10 00:58:00,79.7,74.8,30.09,SE,124,0.0,7.0,85,0.00,,,0.00,meteohub,2013-06-10 04:58:00,
2013-06-10 01:03:00,79.5,74.7,30.09,ENE,69,4.0,7.0,85,0.00,,,0.00,meteohub,2013-06-10 05:03:00,
2013-06-10 01:08:00,79.5,74.7,30.08,East,82,2.0,7.0,85,0.00,,,0.00,meteohub,2013-06-10 05:08:00,
2013-06-10 01:13:00,79.5,74.3,30.08,SE,142,0.0,7.0,84,0.00,,,0.00,meteohub,2013-06-10 05:13:00,
2013-06-10 01:18:00,79.7,74.8,30.08,SSE,158,4.0,6.0,85,0.00,,,0.00,meteohub,2013-06-10 05:18:00,
2013-06-10 01:23:00,79.7,75.2,30.08,SE,125,5.0,6.0,86,0.00,,,0.00,meteohub,2013-06-10 05:23:00,
2013-06-10 01:28:00,79.7,74.8,30.08,SE,129,3.0,8.0,85,0.00,,,0.00,meteohub,2013-06-10 05:28:00,
2013-06-10 01:33:00,79.7,75.2,30.08,East,87,0.0,8.0,86,0.00,,,0.00,meteohub,2013-06-10 05:33:00,
2013-06-10 01:38:00,79.7,75.2,30.07,South,183,1.0,8.0,86,0.00,,,0.00,meteohub,2013-06-10 05:38:00,
2013-06-10 01:43:00,79.7,75.2,30.07,SE,132,4.0,6.0,86,0.00,,,0.00,meteohub,2013-06-10 05:43:00,
2013-06-10 01:48:00,79.5,75.0,30.07,SSE,161,4.0,6.0,86,0.00,,,0.00,meteohub,2013-06-10 05:48:00,
2013-06-10 01:53:00,79.5,75.0,30.07,ESE,123,1.0,6.0,86,0.00,,,0.00,meteohub,2013-06-10 05:53:00,
2013-06-10 01:58:00,79.5,75.0,30.07,SSE,150,0.0,6.0,86,0.00,,,0.00,meteohub,2013-06-10 05:58:00,
2013-06-10 02:03:00,79.5,75.4,30.07,SE,128,4.0,7.0,87,0.00,,,0.00,meteohub,2013-06-10 06:03:00,
2013-06-10 02:08:00,79.5,75.0,30.06,North,0,0.0,7.0,86,0.00,,,0.00,meteohub,2013-06-10 06:08:00,
2013-06-10 02:13:00,79.5,75.0,30.06,ESE,117,2.0,7.0,86,0.00,,,0.00,meteohub,2013-06-10 06:13:00,
2013-06-10 02:18:00,79.5,75.0,30.06,SE,140,3.0,7.0,86,0.00,,,0.00,meteohub,2013-06-10 06:18:00,
2013-06-10 02:23:00,79.5,75.0,30.07,East,85,0.0,7.0,86,0.00,,,0.00,meteohub,2013-06-10 06:23:00,
2013-06-10 02:28:00,79.5,75.0,30.07,SSE,149,0.0,7.0,86,0.00,,,0.00,meteohub,2013-06-10 06:28:00,
2013-06-10 02:33:00,79.5,75.0,30.07,NNE,13,0.0,7.0,86,0.00,,,0.00,meteohub,2013-06-10 06:33:00,
2013-06-10 02:38:00,79.5,75.0,30.07,North,355,0.0,7.0,86,0.00,,,0.00,meteohub,2013-06-10 06:38:00,
2013-06-10 02:43:00,79.5,75.0,30.07,ESE,120,0.0,7.0,86,0.00,,,0.00,meteohub,2013-06-10 06:43:00,
2013-06-10 02:48:00,79.5,75.0,30.07,ESE,109,0.0,5.0,86,0.00,,,0.00,meteohub,2013-06-10 06:48:00,
2013-06-10 02:53:00,79.5,75.0,30.07,SE,142,0.0,5.0,86,0.00,,,0.00,meteohub,2013-06-10 06:53:00,
2013-06-10 02:58:00,79.5,75.0,30.07,SE,130,0.0,5.0,86,0.00,,,0.00,meteohub,2013-06-10 06:58:00,
2013-06-10 03:03:00,79.5,75.4,30.07,SSE,157,0.0,5.0,87,0.00,,,0.00,meteohub,2013-06-10 07:03:00,
2013-06-10 03:08:00,79.5,75.0,30.06,SE,133,1.0,5.0,86,0.00,,,0.00,meteohub,2013-06-10 07:08:00,
2013-06-10 03:13:00,79.3,74.8,30.06,East,84,0.0,5.0,86,0.00,,,0.00,meteohub,2013-06-10 07:13:00,
2013-06-10 03:18:00,79.5,75.0,30.06,SSE,150,0.0,5.0,86,0.00,,,0.00,meteohub,2013-06-10 07:18:00,
2013-06-10 03:23:00,79.5,75.4,30.06,East,98,0.0,4.0,87,0.00,,,0.00,meteohub,2013-06-10 07:23:00,
2013-06-10 03:28:00,79.5,75.4,30.06,NNE,14,0.0,3.0,87,0.00,,,0.00,meteohub,2013-06-10 07:28:00,
2013-06-10 03:33:00,79.5,75.6,30.06,SE,132,1.0,3.0,88,0.00,,,0.00,meteohub,2013-06-10 07:33:00,
2013-06-10 03:38:00,79.5,75.4,30.06,SE,128,0.0,5.0,87,0.00,,,0.00,meteohub,2013-06-10 07:38:00,
2013-06-10 03:43:00,79.5,75.4,30.06,SSE,163,4.0,5.0,87,0.00,,,0.00,meteohub,2013-06-10 07:43:00,
2013-06-10 03:48:00,79.5,75.4,30.06,SSE,148,4.0,5.0,87,0.00,,,0.00,meteohub,2013-06-10 07:48:00,
2013-06-10 03:53:00,79.5,75.4,30.05,SE,146,0.0,6.0,87,0.00,,,0.00,meteohub,2013-06-10 07:53:00,
2013-06-10 03:58:00,79.5,75.4,30.05,ESE,119,3.0,6.0,87,0.00,,,0.00,meteohub,2013-06-10 07:58:00,
2013-06-10 04:03:00,79.5,75.4,30.05,ENE,67,0.0,6.0,87,0.00,,,0.00,meteohub,2013-06-10 08:03:00,
2013-06-10 04:08:00,79.5,75.6,30.05,ESE,106,0.0,6.0,88,0.00,,,0.00,meteohub,2013-06-10 08:08:00,
2013-06-10 04:13:00,79.5,75.6,30.05,East,88,0.0,6.0,88,0.00,,,0.00,meteohub,2013-06-10 08:13:00,
2013-06-10 04:18:00,79.3,75.6,30.05,SE,126,3.0,7.0,88,0.00,,,0.00,meteohub,2013-06-10 08:18:00,
2013-06-10 04:23:00,79.3,75.6,30.05,ESE,108,0.0,7.0,88,0.00,,,0.00,meteohub,2013-06-10 08:23:00,
2013-06-10 04:29:00,79.3,75.6,30.05,South,184,1.0,7.0,88,0.00,,,0.00,meteohub,2013-06-10 08:29:00,
2013-06-10 04:34:00,79.5,75.6,30.05,ESE,117,0.0,7.0,88,0.00,,,0.00,meteohub,2013-06-10 08:34:00,
2013-06-10 04:39:00,79.5,75.4,30.05,SSE,148,2.0,7.0,87,0.00,,,0.00,meteohub,2013-06-10 08:39:00,
2013-06-10 04:44:00,79.5,75.4,30.04,East,94,0.0,7.0,87,0.00,,,0.00,meteohub,2013-06-10 08:44:00,
2013-06-10 04:49:00,79.5,75.4,30.04,SE,144,0.0,7.0,87,0.00,,,0.00,meteohub,2013-06-10 08:49:00,
2013-06-10 04:54:00,79.3,75.2,30.04,South,182,1.0,7.0,87,0.00,,,0.00,meteohub,2013-06-10 08:54:00,
2013-06-10 04:59:00,79.3,75.2,30.04,ESE,119,1.0,9.0,87,0.00,,,0.00,meteohub,2013-06-10 08:59:00,
2013-06-10 05:04:00,79.3,75.2,30.04,SE,132,0.0,9.0,87,0.00,,,0.00,meteohub,2013-06-10 09:04:00,
2013-06-10 05:09:00,79.5,75.6,30.04,SE,141,1.0,9.0,88,0.00,,,0.00,meteohub,2013-06-10 09:09:00,
2013-06-10 05:14:00,79.5,75.4,30.04,SE,142,0.0,7.0,87,0.00,,,0.00,meteohub,2013-06-10 09:14:00,
2013-06-10 05:19:00,79.3,75.6,30.05,NNW,342,0.0,7.0,88,0.00,,,0.00,meteohub,2013-06-10 09:19:00,
2013-06-10 05:24:00,79.3,75.6,30.05,SE,129,1.0,6.0,88,0.00,,,0.00,meteohub,2013-06-10 09:24:00,
2013-06-10 05:29:00,79.3,75.6,30.05,NE,46,0.0,6.0,88,0.00,,,0.00,meteohub,2013-06-10 09:29:00,
2013-06-10 05:34:00,79.3,75.6,30.05,East,101,0.0,6.0,88,0.00,,,0.00,meteohub,2013-06-10 09:34:00,
2013-06-10 05:39:00,79.3,75.6,30.05,SSW,210,1.0,6.0,88,0.00,,,0.00,meteohub,2013-06-10 09:39:00,
2013-06-10 05:44:00,79.5,75.6,30.05,NE,49,2.0,5.0,88,0.00,,,0.00,meteohub,2013-06-10 09:44:00,
2013-06-10 05:49:00,79.3,75.2,30.06,ENE,76,1.0,7.0,87,0.00,,,0.00,meteohub,2013-06-10 09:49:00,
2013-06-10 05:54:00,79.3,75.2,30.06,SE,127,4.0,7.0,87,0.00,,,0.00,meteohub,2013-06-10 09:54:00,
2013-06-10 05:59:00,79.5,75.6,30.06,East,96,2.0,7.0,88,0.00,,,0.00,meteohub,2013-06-10 09:59:00,
2013-06-10 06:04:00,79.5,75.6,30.06,ESE,123,1.0,6.0,88,0.00,,,0.00,meteohub,2013-06-10 10:04:00,
2013-06-10 06:09:00,79.5,75.4,30.06,East,92,0.0,6.0,87,0.00,,,0.00,meteohub,2013-06-10 10:09:00,
2013-06-10 06:14:00,79.5,75.4,30.06,SE,139,1.0,7.0,87,0.00,,,0.00,meteohub,2013-06-10 10:14:00,
2013-06-10 06:19:00,79.7,75.6,30.06,SE,128,0.0,7.0,87,0.00,,,0.00,meteohub,2013-06-10 10:19:00,
2013-06-10 06:24:00,79.7,75.6,30.06,SE,126,2.0,7.0,87,0.00,,,0.00,meteohub,2013-06-10 10:24:00,
2013-06-10 06:29:00,79.7,75.2,30.06,SE,126,1.0,6.0,86,0.00,,,0.00,meteohub,2013-06-10 10:29:00,
2013-06-10 06:34:00,79.7,75.6,30.06,East,80,0.0,7.0,87,0.00,,,0.00,meteohub,2013-06-10 10:34:00,
2013-06-10 06:39:00,79.9,75.7,30.06,SE,128,1.0,7.0,87,0.00,,,0.00,meteohub,2013-06-10 10:39:00,
2013-06-10 06:44:00,79.9,75.7,30.06,SSE,159,0.0,7.0,87,0.00,,,0.00,meteohub,2013-06-10 10:44:00,
2013-06-10 06:49:00,79.9,75.7,30.06,SE,146,0.0,5.0,87,0.00,,,0.00,meteohub,2013-06-10 10:49:00,
2013-06-10 06:54:00,79.9,75.7,30.06,ESE,122,1.0,5.0,87,0.00,,,0.00,meteohub,2013-06-10 10:54:00,
2013-06-10 06:59:00,80.1,75.9,30.06,SSE,160,1.0,8.0,87,0.00,,,0.00,meteohub,2013-06-10 10:59:00,
2013-06-10 07:04:00,80.1,75.9,30.06,East,83,0.0,8.0,87,0.00,,,0.00,meteohub,2013-06-10 11:04:00,
2013-06-10 07:09:00,80.2,76.1,30.06,SE,134,0.0,8.0,87,0.00,,,0.00,meteohub,2013-06-10 11:09:00,
2013-06-10 07:14:00,80.2,76.1,30.06,SSE,160,0.0,6.0,87,0.00,,,0.00,meteohub,2013-06-10 11:14:00,
2013-06-10 07:19:00,80.4,76.1,30.06,SSE,158,0.0,6.0,87,0.00,,,0.00,meteohub,2013-06-10 11:19:00,
2013-06-10 07:24:00,80.6,76.3,30.07,NE,35,2.0,6.0,87,0.00,,,0.00,meteohub,2013-06-10 11:24:00,
2013-06-10 07:29:00,81.0,76.5,30.06,East,101,0.0,4.0,86,0.00,,,0.00,meteohub,2013-06-10 11:29:00,
2013-06-10 07:34:00,81.0,76.5,30.07,SE,139,4.0,4.0,86,0.00,,,0.00,meteohub,2013-06-10 11:34:00,
2013-06-10 07:39:00,80.8,76.3,30.07,ESE,123,0.0,5.0,86,0.00,,,0.00,meteohub,2013-06-10 11:39:00,
2013-06-10 07:44:00,80.6,75.7,30.06,SSE,157,5.0,7.0,85,0.00,,,0.00,meteohub,2013-06-10 11:44:00,
2013-06-10 07:49:00,80.6,75.7,30.06,SSW,203,1.0,7.0,85,0.00,,,0.00,meteohub,2013-06-10 11:49:00,
2013-06-10 07:54:00,80.8,75.9,30.07,South,175,6.0,7.0,85,0.00,,,0.00,meteohub,2013-06-10 11:54:00,
2013-06-10 07:59:00,80.8,75.9,30.07,ENE,67,3.0,9.0,85,0.00,,,0.00,meteohub,2013-06-10 11:59:00,
2013-06-10 08:04:00,80.8,76.3,30.07,South,169,0.0,9.0,86,0.00,,,0.00,meteohub,2013-06-10 12:04:00,
2013-06-10 08:09:00,81.0,76.1,30.07,SE,146,0.0,9.0,85,0.00,,,0.00,meteohub,2013-06-10 12:09:00,
2013-06-10 08:15:00,81.3,76.1,30.07,SSE,151,2.0,5.0,84,0.00,,,0.00,meteohub,2013-06-10 12:15:00,
2013-06-10 08:20:00,81.9,76.1,30.07,East,100,1.0,9.0,83,0.00,,,0.00,meteohub,2013-06-10 12:20:00,
2013-06-10 08:25:00,82.2,76.1,30.08,ESE,106,0.0,9.0,82,0.00,,,0.00,meteohub,2013-06-10 12:25:00,
2013-06-10 08:30:00,82.6,76.8,30.08,ESE,104,2.0,9.0,83,0.00,,,0.00,meteohub,2013-06-10 12:30:00,
2013-06-10 08:35:00,82.8,76.6,30.08,ENE,68,1.0,8.0,82,0.00,,,0.00,meteohub,2013-06-10 12:35:00,
2013-06-10 08:40:00,83.1,76.6,30.08,NE,55,2.0,9.0,81,0.00,,,0.00,meteohub,2013-06-10 12:40:00,
2013-06-10 08:45:00,83.5,77.0,30.08,East,79,0.0,9.0,81,0.00,,,0.00,meteohub,2013-06-10 12:45:00,
2013-06-10 08:50:00,83.7,77.2,30.08,SE,130,0.0,9.0,81,0.00,,,0.00,meteohub,2013-06-10 12:50:00,
2013-06-10 08:55:00,83.8,77.0,30.09,NE,42,3.0,7.0,80,0.00,,,0.00,meteohub,2013-06-10 12:55:00,
2013-06-10 09:00:00,83.8,76.6,30.09,East,101,2.0,7.0,79,0.00,,,0.00,meteohub,2013-06-10 13:00:00,
2013-06-10 09:05:00,83.7,76.8,30.09,East,100,0.0,7.0,80,0.00,,,0.00,meteohub,2013-06-10 13:05:00,
2013-06-10 09:10:00,83.1,76.6,30.09,NE,56,2.0,7.0,81,0.00,,,0.00,meteohub,2013-06-10 13:10:00,
2013-06-10 09:15:00,83.1,76.6,30.09,NE,34,0.0,6.0,81,0.00,,,0.00,meteohub,2013-06-10 13:15:00,
2013-06-10 09:20:00,82.8,76.3,30.09,SE,140,0.0,8.0,81,0.00,,,0.00,meteohub,2013-06-10 13:20:00,
2013-06-10 09:25:00,82.8,76.3,30.09,SE,140,0.0,8.0,81,0.00,,,0.00,meteohub,2013-06-10 13:25:00,
2013-06-10 09:30:00,82.8,76.6,30.09,South,169,2.0,8.0,82,0.00,,,0.00,meteohub,2013-06-10 13:30:00,
2013-06-10 09:35:00,83.1,76.6,30.08,SSE,149,4.0,9.0,81,0.00,,,0.00,meteohub,2013-06-10 13:35:00,
2013-06-10 09:40:00,83.7,76.8,30.09,ESE,112,0.0,9.0,80,0.00,,,0.00,meteohub,2013-06-10 13:40:00,
2013-06-10 09:45:00,84.4,77.2,30.08,ENE,62,1.0,9.0,79,0.00,,,0.00,meteohub,2013-06-10 13:45:00,
2013-06-10 09:50:00,84.9,77.4,30.09,SSE,161,2.0,8.0,78,0.00,,,0.00,meteohub,2013-06-10 13:50:00,
2013-06-10 09:55:00,85.3,76.8,30.09,SE,142,2.0,6.0,76,0.00,,,0.00,meteohub,2013-06-10 13:55:00,
2013-06-10 10:00:00,85.6,77.2,30.09,SSW,203,3.0,6.0,76,0.00,,,0.00,meteohub,2013-06-10 14:00:00,
2013-06-10 10:05:00,85.8,76.6,30.09,SSE,148,2.0,10.0,74,0.00,,,0.00,meteohub,2013-06-10 14:05:00,
2013-06-10 10:10:00,85.8,77.4,30.09,SSE,164,3.0,10.0,76,0.00,,,0.00,meteohub,2013-06-10 14:10:00,
2013-06-10 10:15:00,85.8,77.0,30.09,East,96,0.0,10.0,75,0.00,,,0.00,meteohub,2013-06-10 14:15:00,
2013-06-10 10:20:00,86.0,77.5,30.09,ESE,111,1.0,6.0,76,0.00,,,0.00,meteohub,2013-06-10 14:20:00,
2013-06-10 10:25:00,86.0,77.2,30.09,SSE,148,1.0,8.0,75,0.00,,,0.00,meteohub,2013-06-10 14:25:00,
2013-06-10 10:30:00,86.0,76.8,30.09,SSE,147,1.0,8.0,74,0.00,,,0.00,meteohub,2013-06-10 14:30:00,
2013-06-10 10:35:00,85.6,77.2,30.09,WNW,294,0.0,6.0,76,0.00,,,0.00,meteohub,2013-06-10 14:35:00,
2013-06-10 10:40:00,86.0,77.2,30.09,SE,126,2.0,7.0,75,0.00,,,0.00,meteohub,2013-06-10 14:40:00,
2013-06-10 10:45:00,86.4,77.5,30.09,SE,130,0.0,7.0,75,0.00,,,0.00,meteohub,2013-06-10 14:45:00,
2013-06-10 10:50:00,86.7,77.9,30.09,SE,129,2.0,7.0,75,0.00,,,0.00,meteohub,2013-06-10 14:50:00,
2013-06-10 10:55:00,86.4,77.0,30.09,SE,132,2.0,5.0,74,0.00,,,0.00,meteohub,2013-06-10 14:55:00,
2013-06-10 11:00:00,85.6,77.5,30.09,SW,219,2.0,5.0,77,0.00,,,0.00,meteohub,2013-06-10 15:00:00,
2013-06-10 11:05:00,85.5,77.4,30.09,ENE,71,0.0,7.0,77,0.00,,,0.00,meteohub,2013-06-10 15:05:00,
2013-06-10 11:10:00,85.8,77.7,30.09,SSE,165,2.0,7.0,77,0.00,,,0.00,meteohub,2013-06-10 15:10:00,
2013-06-10 11:15:00,86.7,77.9,30.09,NNE,13,4.0,7.0,75,0.00,,,0.00,meteohub,2013-06-10 15:15:00,
2013-06-10 11:20:00,86.7,77.0,30.09,ESE,102,0.0,8.0,73,0.00,,,0.00,meteohub,2013-06-10 15:20:00,
2013-06-10 11:25:00,86.9,77.5,30.09,SE,139,0.0,8.0,74,0.00,,,0.00,meteohub,2013-06-10 15:25:00,
2013-06-10 11:30:00,87.1,77.7,30.09,SSE,167,2.0,8.0,74,0.00,,,0.00,meteohub,2013-06-10 15:30:00,
2013-06-10 11:35:00,86.7,77.4,30.09,SE,138,0.0,9.0,74,0.00,,,0.00,meteohub,2013-06-10 15:35:00,
2013-06-10 11:40:00,87.4,77.7,30.09,SE,125,2.0,9.0,73,0.00,,,0.00,meteohub,2013-06-10 15:40:00,
2013-06-10 11:45:00,86.9,77.5,30.09,ESE,107,0.0,9.0,74,0.00,,,0.00,meteohub,2013-06-10 15:45:00,
2013-06-10 11:50:00,87.1,78.3,30.09,SSW,194,1.0,5.0,75,0.00,,,0.00,meteohub,2013-06-10 15:50:00,
2013-06-10 11:55:00,87.4,77.7,30.09,SE,126,2.0,6.0,73,0.00,,,0.00,meteohub,2013-06-10 15:55:00,
2013-06-10 12:00:00,88.0,78.3,30.08,East,98,1.0,6.0,73,0.00,,,0.00,meteohub,2013-06-10 16:00:00,
2013-06-10 12:05:00,88.0,77.9,30.09,ESE,121,1.0,6.0,72,0.00,,,0.00,meteohub,2013-06-10 16:05:00,
2013-06-10 12:10:00,87.8,78.1,30.08,ESE,105,3.0,5.0,73,0.00,,,0.00,meteohub,2013-06-10 16:10:00,
2013-06-10 12:15:00,87.4,77.7,30.08,ENE,70,1.0,9.0,73,0.00,,,0.00,meteohub,2013-06-10 16:15:00,
2013-06-10 12:20:00,87.4,78.1,30.08,East,96,3.0,9.0,74,0.00,,,0.00,meteohub,2013-06-10 16:20:00,
2013-06-10 12:25:00,87.6,78.3,30.08,South,175,2.0,9.0,74,0.00,,,0.00,meteohub,2013-06-10 16:25:00,
2013-06-10 12:30:00,87.8,78.1,30.08,SE,135,1.0,7.0,73,0.00,,,0.00,meteohub,2013-06-10 16:30:00,
2013-06-10 12:36:00,87.6,77.9,30.07,SE,141,0.0,8.0,73,0.00,,,0.00,meteohub,2013-06-10 16:36:00,
2013-06-10 12:41:00,87.6,77.5,30.07,SSE,156,2.0,8.0,72,0.00,,,0.00,meteohub,2013-06-10 16:41:00,
2013-06-10 12:46:00,87.4,77.7,30.07,NNE,13,4.0,8.0,73,0.00,,,0.00,meteohub,2013-06-10 16:46:00,
2013-06-10 12:51:00,87.4,77.7,30.07,South,178,8.0,8.0,73,0.00,,,0.00,meteohub,2013-06-10 16:51:00,
2013-06-10 12:56:00,87.4,77.7,30.07,WNW,299,2.0,8.0,73,0.00,,,0.00,meteohub,2013-06-10 16:56:00,
2013-06-10 13:01:00,87.6,77.5,30.06,SE,139,1.0,8.0,72,0.00,,,0.00,meteohub,2013-06-10 17:01:00,
2013-06-10 13:06:00,87.6,77.9,30.06,ESE,123,0.0,8.0,73,0.00,,,0.00,meteohub,2013-06-10 17:06:00,
2013-06-10 13:11:00,87.8,77.7,30.07,ENE,75,2.0,7.0,72,0.00,,,0.00,meteohub,2013-06-10 17:11:00,
2013-06-10 13:16:00,87.8,77.7,30.07,SSE,157,2.0,7.0,72,0.00,,,0.00,meteohub,2013-06-10 17:16:00,
2013-06-10 13:21:00,88.2,77.9,30.07,SSE,155,5.0,6.0,72,0.00,,,0.00,meteohub,2013-06-10 17:21:00,
2013-06-10 13:26:00,88.0,78.3,30.06,NE,51,2.0,8.0,73,0.00,,,0.00,meteohub,2013-06-10 17:26:00,
2013-06-10 13:31:00,88.0,77.9,30.06,ESE,123,3.0,8.0,72,0.00,,,0.00,meteohub,2013-06-10 17:31:00,
2013-06-10 13:36:00,88.0,78.3,30.06,South,175,4.0,8.0,73,0.00,,,0.00,meteohub,2013-06-10 17:36:00,
2013-06-10 13:41:00,88.2,77.9,30.06,SSE,167,0.0,10.0,72,0.00,,,0.00,meteohub,2013-06-10 17:41:00,
2013-06-10 13:46:00,88.2,77.9,30.06,NNE,15,1.0,10.0,72,0.00,,,0.00,meteohub,2013-06-10 17:46:00,
2013-06-10 13:51:00,88.3,77.7,30.06,SSW,198,1.0,10.0,71,0.00,,,0.00,meteohub,2013-06-10 17:51:00,
2013-06-10 13:56:00,88.5,77.9,30.06,ESE,113,3.0,8.0,71,0.00,,,0.00,meteohub,2013-06-10 17:56:00,
2013-06-10 14:01:00,88.2,77.9,30.06,ENE,59,3.0,8.0,72,0.00,,,0.00,meteohub,2013-06-10 18:01:00,
2013-06-10 14:06:00,88.0,77.9,30.06,NNE,28,2.0,8.0,72,0.00,,,0.00,meteohub,2013-06-10 18:06:00,
2013-06-10 14:11:00,87.6,77.9,30.06,SE,141,4.0,11.0,73,0.00,,,0.00,meteohub,2013-06-10 18:11:00,
2013-06-10 14:16:00,88.0,77.9,30.06,NE,42,3.0,11.0,72,0.00,,,0.00,meteohub,2013-06-10 18:16:00,
2013-06-10 14:21:00,87.4,77.4,30.06,NE,44,2.0,11.0,72,0.00,,,0.00,meteohub,2013-06-10 18:21:00,
2013-06-10 14:26:00,87.3,77.5,30.06,SSE,151,1.0,8.0,73,0.00,,,0.00,meteohub,2013-06-10 18:26:00,
2013-06-10 14:31:00,87.3,77.2,30.06,SW,234,4.0,8.0,72,0.00,,,0.00,meteohub,2013-06-10 18:31:00,
2013-06-10 14:36:00,88.0,77.9,30.06,SE,130,3.0,7.0,72,0.00,,,0.00,meteohub,2013-06-10 18:36:00,
2013-06-10 14:41:00,88.3,77.7,30.06,ENE,65,0.0,7.0,71,0.00,,,0.00,meteohub,2013-06-10 18:41:00,
2013-06-10 14:46:00,88.9,77.9,30.06,SSE,153,0.0,6.0,70,0.00,,,0.00,meteohub,2013-06-10 18:46:00,
2013-06-10 14:51:00,88.5,76.6,30.05,SSE,165,0.0,8.0,68,0.00,,,0.00,meteohub,2013-06-10 18:51:00,
2013-06-10 14:56:00,88.5,77.5,30.05,ESE,111,0.0,8.0,70,0.00,,,0.00,meteohub,2013-06-10 18:56:00,
2013-06-10 15:01:00,89.1,77.2,30.05,SSE,150,1.0,8.0,68,0.00,,,0.00,meteohub,2013-06-10 19:01:00,
2013-06-10 15:06:00,88.9,77.0,30.05,South,172,6.0,7.0,68,0.00,,,0.00,meteohub,2013-06-10 19:06:00,
2013-06-10 15:11:00,88.3,76.8,30.05,SE,125,4.0,8.0,69,0.00,,,0.00,meteohub,2013-06-10 19:11:00,
2013-06-10 15:16:00,88.2,77.2,30.05,SSE,167,2.0,8.0,70,0.00,,,0.00,meteohub,2013-06-10 19:16:00,
2013-06-10 15:22:00,88.5,77.5,30.05,SE,130,1.0,8.0,70,0.00,,,0.00,meteohub,2013-06-10 19:22:00,
2013-06-10 15:27:00,88.2,77.2,30.05,ESE,109,2.0,8.0,70,0.00,,,0.00,meteohub,2013-06-10 19:27:00,
2013-06-10 15:32:00,88.3,76.8,30.05,NNE,19,0.0,7.0,69,0.00,,,0.00,meteohub,2013-06-10 19:32:00,
2013-06-10 15:37:00,88.9,77.4,30.05,ESE,113,1.0,7.0,69,0.00,,,0.00,meteohub,2013-06-10 19:37:00,
2013-06-10 15:42:00,88.9,77.0,30.05,SE,135,3.0,4.0,68,0.00,,,0.00,meteohub,2013-06-10 19:42:00,
2013-06-10 15:47:00,88.0,76.5,30.05,SE,134,1.0,6.0,69,0.00,,,0.00,meteohub,2013-06-10 19:47:00,
2013-06-10 15:52:00,88.2,76.6,30.05,South,180,1.0,6.0,69,0.00,,,0.00,meteohub,2013-06-10 19:52:00,
2013-06-10 15:57:00,88.2,76.6,30.04,SSE,158,1.0,6.0,69,0.00,,,0.00,meteohub,2013-06-10 19:57:00,
2013-06-10 16:02:00,88.2,77.2,30.04,SE,132,3.0,6.0,70,0.00,,,0.00,meteohub,2013-06-10 20:02:00,
2013-06-10 16:07:00,87.8,76.8,30.04,NE,34,2.0,7.0,70,0.00,,,0.00,meteohub,2013-06-10 20:07:00,
2013-06-10 16:12:00,87.8,75.9,30.04,SE,132,2.0,7.0,68,0.00,,,0.00,meteohub,2013-06-10 20:12:00,
2013-06-10 16:17:00,88.0,77.0,30.04,East,97,3.0,7.0,70,0.00,,,0.00,meteohub,2013-06-10 20:17:00,
2013-06-10 16:22:00,88.2,76.6,30.04,East,80,2.0,7.0,69,0.00,,,0.00,meteohub,2013-06-10 20:22:00,
2013-06-10 16:27:00,88.3,76.8,30.04,ENE,65,1.0,7.0,69,0.00,,,0.00,meteohub,2013-06-10 20:27:00,
2013-06-10 16:32:00,88.2,77.2,30.03,NE,55,2.0,7.0,70,0.00,,,0.00,meteohub,2013-06-10 20:32:00,
2013-06-10 16:37:00,87.4,76.5,30.03,NE,38,1.0,6.0,70,0.00,,,0.00,meteohub,2013-06-10 20:37:00,
2013-06-10 16:42:00,87.3,76.3,30.04,ESE,115,1.0,7.0,70,0.00,,,0.00,meteohub,2013-06-10 20:42:00,
2013-06-10 16:47:00,87.4,77.4,30.04,North,355,2.0,7.0,72,0.00,,,0.00,meteohub,2013-06-10 20:47:00,
2013-06-10 16:52:00,87.1,77.0,30.03,SSE,164,0.0,7.0,72,0.00,,,0.00,meteohub,2013-06-10 20:52:00,
2013-06-10 16:57:00,86.9,77.2,30.03,SSE,157,3.0,7.0,73,0.00,,,0.00,meteohub,2013-06-10 20:57:00,
2013-06-10 17:02:00,86.7,77.0,30.03,SE,140,1.0,7.0,73,0.00,,,0.00,meteohub,2013-06-10 21:02:00,
2013-06-10 17:07:00,86.7,76.6,30.03,South,173,0.0,6.0,72,0.00,,,0.00,meteohub,2013-06-10 21:07:00,
2013-06-10 17:12:00,86.7,77.0,30.03,SE,134,0.0,7.0,73,0.00,,,0.00,meteohub,2013-06-10 21:12:00,
2013-06-10 17:17:00,86.7,77.0,30.02,SE,139,0.0,7.0,73,0.00,,,0.00,meteohub,2013-06-10 21:17:00,
2013-06-10 17:22:00,86.9,77.2,30.02,South,186,5.0,7.0,73,0.00,,,0.00,meteohub,2013-06-10 21:22:00,
2013-06-10 17:28:00,86.4,77.0,30.02,SE,144,0.0,7.0,74,0.00,,,0.00,meteohub,2013-06-10 21:28:00,
2013-06-10 17:32:00,86.4,77.5,30.02,North,0,1.0,7.0,75,0.00,,,0.00,meteohub,2013-06-10 21:32:00,
2013-06-10 17:38:00,86.5,77.2,30.02,ENE,57,0.0,7.0,74,0.00,,,0.00,meteohub,2013-06-10 21:38:00,
2013-06-10 17:43:00,86.5,77.2,30.02,East,84,0.0,7.0,74,0.00,,,0.00,meteohub,2013-06-10 21:43:00,
2013-06-10 17:48:00,86.2,77.0,30.02,North,355,2.0,5.0,74,0.00,,,0.00,meteohub,2013-06-10 21:48:00,
2013-06-10 17:53:00,86.2,77.4,30.02,SSE,156,0.0,5.0,75,0.00,,,0.00,meteohub,2013-06-10 21:53:00,
2013-06-10 17:58:00,85.8,77.0,30.03,South,173,2.0,6.0,75,0.00,,,0.00,meteohub,2013-06-10 21:58:00,
2013-06-10 18:03:00,85.6,76.8,30.02,NE,39,4.0,6.0,75,0.00,,,0.00,meteohub,2013-06-10 22:03:00,
2013-06-10 18:08:00,85.6,76.8,30.03,NNW,345,1.0,6.0,75,0.00,,,0.00,meteohub,2013-06-10 22:08:00,
2013-06-10 18:13:00,85.6,77.2,30.02,East,83,1.0,6.0,76,0.00,,,0.00,meteohub,2013-06-10 22:13:00,
2013-06-10 18:18:00,85.5,77.0,30.02,SE,139,3.0,4.0,76,0.00,,,0.00,meteohub,2013-06-10 22:18:00,
2013-06-10 18:21:00,85.5,77.0,30.02,NNE,13,0.0,5.0,76,0.00,,,0.00,meteohub,2013-06-10 22:21:00,
2013-06-10 18:27:00,85.1,76.6,30.02,ENE,76,0.0,5.0,76,0.00,,,0.00,meteohub,2013-06-10 22:27:00,
2013-06-10 18:32:00,84.7,76.6,30.02,SSE,148,3.0,5.0,77,0.00,,,0.00,meteohub,2013-06-10 22:32:00,
2013-06-10 18:37:00,84.7,76.3,30.02,SSE,159,1.0,6.0,76,0.00,,,0.00,meteohub,2013-06-10 22:37:00,
2013-06-10 18:42:00,84.6,76.5,30.02,SE,132,2.0,6.0,77,0.00,,,0.00,meteohub,2013-06-10 22:42:00,
2013-06-10 18:47:00,84.4,76.5,30.01,ENE,78,0.0,6.0,77,0.00,,,0.00,meteohub,2013-06-10 22:47:00,
2013-06-10 18:52:00,84.4,76.5,30.02,SSE,153,0.0,6.0,77,0.00,,,0.00,meteohub,2013-06-10 22:52:00,
2013-06-10 18:57:00,84.4,76.5,30.02,NE,48,1.0,6.0,77,0.00,,,0.00,meteohub,2013-06-10 22:57:00,
2013-06-10 19:02:00,84.0,76.5,30.01,East,90,0.0,6.0,78,0.00,,,0.00,meteohub,2013-06-10 23:02:00,
2013-06-10 19:07:00,83.8,76.6,30.02,NE,47,0.0,3.0,79,0.00,,,0.00,meteohub,2013-06-10 23:07:00,
2013-06-10 19:12:00,83.7,76.8,30.01,SE,144,0.0,3.0,80,0.00,,,0.00,meteohub,2013-06-10 23:12:00,
2013-06-10 19:17:00,83.3,76.1,30.01,NE,40,0.0,3.0,79,0.00,,,0.00,meteohub,2013-06-10 23:17:00,
2013-06-10 19:22:00,83.1,76.3,30.02,East,81,0.0,3.0,80,0.00,,,0.00,meteohub,2013-06-10 23:22:00,
2013-06-10 19:27:00,82.9,76.5,30.02,SSE,157,0.0,3.0,81,0.00,,,0.00,meteohub,2013-06-10 23:27:00,
2013-06-10 19:32:00,82.6,76.1,30.02,NE,35,0.0,3.0,81,0.00,,,0.00,meteohub,2013-06-10 23:32:00,
2013-06-10 19:37:00,82.2,75.7,30.02,East,96,0.0,2.0,81,0.00,,,0.00,meteohub,2013-06-10 23:37:00,
2013-06-10 19:42:00,82.0,75.9,30.02,NW,319,0.0,2.0,82,0.00,,,0.00,meteohub,2013-06-10 23:42:00,
2013-06-10 19:47:00,82.0,75.9,30.02,SE,143,0.0,2.0,82,0.00,,,0.00,meteohub,2013-06-10 23:47:00,
2013-06-10 19:52:00,81.9,76.1,30.02,ESE,103,0.0,2.0,83,0.00,,,0.00,meteohub,2013-06-10 23:52:00,
2013-06-10 19:57:00,81.7,75.9,30.02,ESE,108,0.0,2.0,83,0.00,,,0.00,meteohub,2013-06-10 23:57:00,
2013-06-10 20:02:00,81.5,76.3,30.02,ENE,74,0.0,2.0,84,0.00,,,0.00,meteohub,2013-06-11 00:02:00,
2013-06-10 20:07:00,81.3,76.1,30.02,SE,140,0.0,2.0,84,0.00,,,0.00,meteohub,2013-06-11 00:07:00,
2013-06-10 20:12:00,81.1,76.3,30.02,ENE,60,0.0,4.0,85,0.00,,,0.00,meteohub,2013-06-11 00:12:00,
2013-06-10 20:17:00,81.1,76.3,30.03,ENE,60,0.0,4.0,85,0.00,,,0.00,meteohub,2013-06-11 00:17:00,
2013-06-10 20:22:00,81.0,76.5,30.03,East,88,0.0,4.0,86,0.00,,,0.00,meteohub,2013-06-11 00:22:00,
2013-06-10 20:27:00,81.0,76.1,30.04,East,82,0.0,2.0,85,0.00,,,0.00,meteohub,2013-06-11 00:27:00,
2013-06-10 20:32:00,80.8,75.9,30.04,SSE,163,0.0,2.0,85,0.00,,,0.00,meteohub,2013-06-11 00:32:00,
2013-06-10 20:37:00,80.8,75.9,30.04,SE,124,0.0,2.0,85,0.00,,,0.00,meteohub,2013-06-11 00:37:00,
2013-06-10 20:42:00,80.8,75.9,30.04,East,88,0.0,2.0,85,0.00,,,0.00,meteohub,2013-06-11 00:42:00,
2013-06-10 20:47:00,80.8,75.9,30.04,NE,53,0.0,2.0,85,0.00,,,0.00,meteohub,2013-06-11 00:47:00,
2013-06-10 20:52:00,80.6,76.1,30.05,ESE,118,0.0,2.0,86,0.00,,,0.00,meteohub,2013-06-11 00:52:00,
2013-06-10 20:57:00,80.6,76.1,30.04,East,81,0.0,2.0,86,0.00,,,0.00,meteohub,2013-06-11 00:57:00,
2013-06-10 21:02:00,80.6,76.1,30.05,East,94,0.0,2.0,86,0.00,,,0.00,meteohub,2013-06-11 01:02:00,
2013-06-10 21:07:00,80.4,75.9,30.05,North,0,0.0,2.0,86,0.00,,,0.00,meteohub,2013-06-11 01:07:00,
2013-06-10 21:12:00,80.4,75.9,30.05,SE,138,0.0,2.0,86,0.00,,,0.00,meteohub,2013-06-11 01:12:00,
2013-06-10 21:17:00,80.4,75.9,30.05,ENE,69,0.0,2.0,86,0.00,,,0.00,meteohub,2013-06-11 01:17:00,
2013-06-10 21:22:00,80.4,75.9,30.05,ENE,61,1.0,2.0,86,0.00,,,0.00,meteohub,2013-06-11 01:22:00,
2013-06-10 21:27:00,80.4,75.9,30.05,NE,50,0.0,3.0,86,0.00,,,0.00,meteohub,2013-06-11 01:27:00,
2013-06-10 21:33:00,80.4,75.9,30.06,South,171,0.0,5.0,86,0.00,,,0.00,meteohub,2013-06-11 01:33:00,
2013-06-10 21:38:00,80.4,76.1,30.06,East,99,0.0,5.0,87,0.00,,,0.00,meteohub,2013-06-11 01:38:00,
2013-06-10 21:42:00,80.4,76.1,30.06,SE,129,0.0,5.0,87,0.00,,,0.00,meteohub,2013-06-11 01:42:00,
2013-06-10 21:48:00,80.4,76.1,30.06,SE,140,0.0,3.0,87,0.00,,,0.00,meteohub,2013-06-11 01:48:00,
2013-06-10 21:53:00,80.4,76.5,30.06,SW,215,0.0,3.0,88,0.00,,,0.00,meteohub,2013-06-11 01:53:00,
2013-06-10 21:58:00,80.4,76.5,30.07,SSE,148,0.0,3.0,88,0.00,,,0.00,meteohub,2013-06-11 01:58:00,
2013-06-10 22:03:00,80.4,76.5,30.07,SSE,149,2.0,2.0,88,0.00,,,0.00,meteohub,2013-06-11 02:03:00,
2013-06-10 22:08:00,80.4,76.5,30.07,ENE,71,0.0,2.0,88,0.00,,,0.00,meteohub,2013-06-11 02:08:00,
2013-06-10 22:13:00,80.4,76.5,30.07,ESE,117,0.0,3.0,88,0.00,,,0.00,meteohub,2013-06-11 02:13:00,
2013-06-10 22:18:00,80.4,76.5,30.08,SE,125,0.0,3.0,88,0.00,,,0.00,meteohub,2013-06-11 02:18:00,
2013-06-10 22:23:00,80.4,76.5,30.08,SE,125,1.0,4.0,88,0.00,,,0.00,meteohub,2013-06-11 02:23:00,
2013-06-10 22:28:00,80.4,76.5,30.07,SE,132,0.0,4.0,88,0.00,,,0.00,meteohub,2013-06-11 02:28:00,
2013-06-10 22:33:00,80.4,76.5,30.08,SSE,147,0.0,4.0,88,0.00,,,0.00,meteohub,2013-06-11 02:33:00,
2013-06-10 22:38:00,80.4,76.5,30.07,SSE,154,0.0,3.0,88,0.00,,,0.00,meteohub,2013-06-11 02:38:00,
2013-06-10 22:43:00,80.4,76.5,30.07,ESE,123,0.0,4.0,88,0.00,,,0.00,meteohub,2013-06-11 02:43:00,
2013-06-10 22:48:00,80.4,76.5,30.07,ESE,119,0.0,4.0,88,0.00,,,0.00,meteohub,2013-06-11 02:48:00,
2013-06-10 22:53:00,80.4,76.5,30.07,ESE,109,0.0,4.0,88,0.00,,,0.00,meteohub,2013-06-11 02:53:00,
2013-06-10 22:58:00,80.4,76.5,30.07,ESE,122,0.0,4.0,88,0.00,,,0.00,meteohub,2013-06-11 02:58:00,
2013-06-10 23:03:00,80.4,76.5,30.07,SE,140,0.0,3.0,88,0.00,,,0.00,meteohub,2013-06-11 03:03:00,
2013-06-10 23:08:00,80.4,76.5,30.08,ESE,112,0.0,3.0,88,0.00,,,0.00,meteohub,2013-06-11 03:08:00,
2013-06-10 23:13:00,80.4,76.5,30.08,SSE,161,0.0,3.0,88,0.00,,,0.00,meteohub,2013-06-11 03:13:00,
2013-06-10 23:18:00,80.4,76.5,30.08,SE,132,3.0,3.0,88,0.00,,,0.00,meteohub,2013-06-11 03:18:00,
2013-06-10 23:23:00,80.2,76.3,30.08,SE,129,0.0,4.0,88,0.00,,,0.00,meteohub,2013-06-11 03:23:00,
2013-06-10 23:28:00,80.2,76.3,30.08,WSW,256,0.0,4.0,88,0.00,,,0.00,meteohub,2013-06-11 03:28:00,
2013-06-10 23:33:00,80.2,76.3,30.08,SE,146,0.0,4.0,88,0.00,,,0.00,meteohub,2013-06-11 03:33:00,
2013-06-10 23:38:00,80.2,76.3,30.08,ESE,115,0.0,1.0,88,0.00,,,0.00,meteohub,2013-06-11 03:38:00,
2013-06-10 23:43:00,80.2,76.3,30.08,SSE,150,4.0,4.0,88,0.00,,,0.00,meteohub,2013-06-11 03:43:00,
2013-06-10 23:48:00,80.4,76.5,30.08,SSE,155,0.0,5.0,88,0.00,,,0.00,meteohub,2013-06-11 03:48:00,
2013-06-10 23:53:00,80.4,76.5,30.08,SSE,148,0.0,5.0,88,0.00,,,0.00,meteohub,2013-06-11 03:53:00,
2013-06-10 23:58:00,80.4,76.5,30.08,East,84,0.0,5.0,88,0.00,,,0.00,meteohub,2013-06-11 03:58:00,